Terug naar catalogus

SL-14 DEB

ActiefPO
NORAD 35525·DEBRIS·🇷🇺 Russia

Gelanceerd Aug 18, 1987 vanaf Plesetsk Cosmodrome

Loading…

Volgende Passages (komende 24 uur)

TLE

VerouderendSource: Space-Track

Epoch: Sep 8, 2026, 07:19 UTC

1 35525U 87068CU  26251.30494536  .00000150  00000-0  12280-3 0  9991
2 35525  82.5420 251.5831 0020605  12.2168  47.7677 13.83565581175760

Volg SL-14 DEB in realtime met AllMySat

Download on the App Store